Weather History for Grand Rapids, MN

Change the Weather History Date:

Saturday, July 5, 2014

  Actual Average Record
Temperature  
Mean Temperature 71 °F -  
Max Temperature 80 °F 81 °F 95 °F (1948)
Min Temperature 62 °F 53 °F 37 °F (1967)
Cooling Degree Days 6    
Growing Degree Days 21 (Base 50)    
Moisture  
Dew Point 63 °F    
Average Humidity 73    
Maximum Humidity 88    
Minimum Humidity 61    
Precipitation  
Precipitation 0.22 in - - ()
Sea Level Pressure  
Sea Level Pressure 29.90 in    
Wind  
Wind Speed 10 mph (South)    
Max Wind Speed 18 mph    
Max Gust Speed 28 mph    
Visibility 10 miles    
Events Thunderstorm    
Averages and records for this station are not official NWS values.
T = Trace of Precipitation, MM = Missing Value Source: NWS Daily Summary

Daily Weather History Graph

Daily Weather History Graph

Search for Another Location

Airport:

Trip Planner

Search our weather history database for the weather conditions in past years. The results will help you decide how hot, cold, wet, or windy it might be!

Date:

Astronomy

Jul. 05, 2014 Rise Set
Actual Time 5:24 AM CDT 9:12 PM CDT
Civil Twilight 4:45 AM CDT 9:51 PM CDT
Nautical Twilight 3:51 AM CDT 10:45 PM CDT
Astronomical Twilight 2:33 AM CDT 12:02 AM CDT
Moon 1:53 PM CDT (7/5) 12:33 AM CDT (7/5)
Length of Visible Light 17h 06m
Length of Day
15h 47m
First Quarter, 52% of the Moon is Illuminated
Jul 5
First Quarter
Jul 12
Full
Jul 18
Last Quarter
Jul 26
New
Aug 3
First Quarter

Hourly Weather History & Observations

Time (CDT) Temp. Heat Index Dew Point Humidity Pressure Visibility Wind Dir Wind Speed Gust Speed Precip Events Conditions
12:15 AM 64.4 °F - 53.6 °F 68% 30.03 in 10.0 mi South 11.5 mph - N/A   Partly Cloudy
12:35 AM 64.4 °F - 53.6 °F 68% 30.03 in 10.0 mi SSE 6.9 mph - N/A   Clear
12:55 AM 62.6 °F - 53.6 °F 72% 30.02 in 10.0 mi SSE 10.4 mph - N/A   Clear
1:15 AM 62.6 °F - 55.4 °F 77% 30.01 in 10.0 mi South 11.5 mph - N/A   Clear
1:35 AM 64.4 °F - 55.4 °F 73% 30.00 in 10.0 mi South 11.5 mph - N/A   Clear
1:55 AM 64.4 °F - 55.4 °F 73% 30.00 in 10.0 mi South 11.5 mph - N/A   Clear
2:15 AM 64.4 °F - 57.2 °F 77% 30.00 in 10.0 mi South 11.5 mph - N/A   Clear
2:35 AM 64.4 °F - 57.2 °F 77% 29.99 in 10.0 mi South 10.4 mph 16.1 mph N/A   Clear
2:55 AM 64.4 °F - 57.2 °F 77% 30.00 in 10.0 mi South 8.1 mph - N/A   Partly Cloudy
3:15 AM 64.4 °F - 57.2 °F 77% 30.00 in 10.0 mi South 9.2 mph - N/A   Mostly Cloudy
3:35 AM 64.4 °F - 57.2 °F 77% 30.00 in 10.0 mi South 6.9 mph - N/A   Overcast
3:55 AM 64.4 °F - 59.0 °F 83% 29.99 in 10.0 mi South 9.2 mph - N/A   Mostly Cloudy
4:15 AM 64.4 °F - 59.0 °F 83% 29.98 in 10.0 mi South 8.1 mph - N/A   Partly Cloudy
4:35 AM 64.4 °F - 59.0 °F 83% 29.98 in 10.0 mi SSE 6.9 mph - N/A   Mostly Cloudy
4:55 AM 64.4 °F - 59.0 °F 83% 29.98 in 10.0 mi SE 5.8 mph - N/A   Partly Cloudy
5:15 AM 64.4 °F - 59.0 °F 83% 29.97 in 10.0 mi ESE 4.6 mph - N/A   Clear
5:35 AM 62.6 °F - 57.2 °F 82% 29.97 in 10.0 mi SE 4.6 mph - N/A   Mostly Cloudy
5:55 AM 62.6 °F - 57.2 °F 82% 29.97 in 10.0 mi SSE 6.9 mph - N/A   Overcast
6:15 AM 62.6 °F - 59.0 °F 88% 29.96 in 10.0 mi SSE 8.1 mph - N/A   Overcast
6:35 AM 64.4 °F - 59.0 °F 83% 29.96 in 10.0 mi SSE 10.4 mph - N/A   Mostly Cloudy
6:55 AM 64.4 °F - 59.0 °F 83% 29.96 in 10.0 mi South 12.7 mph 17.3 mph N/A   Overcast
7:15 AM 64.4 °F - 59.0 °F 83% 29.95 in 10.0 mi South 11.5 mph - N/A   Overcast
7:35 AM 66.2 °F - 59.0 °F 78% 29.96 in 10.0 mi South 13.8 mph 19.6 mph N/A   Mostly Cloudy
7:55 AM 66.2 °F - 60.8 °F 83% 29.95 in 10.0 mi South 13.8 mph 23.0 mph N/A   Mostly Cloudy
8:15 AM 66.2 °F - 60.8 °F 83% 29.95 in 10.0 mi South 13.8 mph 23.0 mph N/A   Overcast
8:35 AM 69.8 °F - 60.8 °F 73% 29.95 in 10.0 mi SSW 10.4 mph 18.4 mph N/A   Scattered Clouds
8:55 AM 69.8 °F - 60.8 °F 73% 29.93 in 10.0 mi South 12.7 mph 19.6 mph N/A   Clear
9:15 AM 71.6 °F - 62.6 °F 73% 29.93 in 10.0 mi SSW 13.8 mph 21.9 mph N/A   Clear
9:35 AM 71.6 °F - 60.8 °F 69% 29.93 in 10.0 mi SSW 13.8 mph 26.5 mph N/A   Clear
9:55 AM 71.6 °F - 60.8 °F 69% 29.92 in 10.0 mi South 18.4 mph 21.9 mph N/A   Clear
10:15 AM 71.6 °F - 62.6 °F 73% 29.91 in 10.0 mi South 13.8 mph 20.7 mph N/A   Clear
10:35 AM 73.4 °F - 62.6 °F 69% 29.91 in 10.0 mi South 16.1 mph - N/A   Partly Cloudy
10:55 AM 75.2 °F - 64.4 °F 69% 29.91 in 10.0 mi South 12.7 mph 17.3 mph N/A   Scattered Clouds
11:15 AM 75.2 °F - 62.6 °F 65% 29.91 in 10.0 mi SSW 10.4 mph - N/A   Mostly Cloudy
11:35 AM 75.2 °F - 64.4 °F 69% 29.90 in 10.0 mi South 10.4 mph 19.6 mph N/A   Scattered Clouds
11:55 AM 75.2 °F - 64.4 °F 69% 29.89 in 10.0 mi South 13.8 mph 18.4 mph N/A   Partly Cloudy
12:15 PM 77.0 °F - 64.4 °F 65% 29.88 in 10.0 mi South 13.8 mph 23.0 mph N/A   Partly Cloudy
12:35 PM 78.8 °F - 64.4 °F 61% 29.87 in 10.0 mi South 16.1 mph 23.0 mph N/A   Scattered Clouds
12:55 PM 78.8 °F - 64.4 °F 61% 29.87 in 10.0 mi SSW 11.5 mph - N/A   Scattered Clouds
1:15 PM 77.0 °F - 64.4 °F 65% 29.88 in 10.0 mi South 10.4 mph 20.7 mph N/A   Mostly Cloudy
1:35 PM 78.8 °F - 66.2 °F 65% 29.87 in 10.0 mi SSW 10.4 mph 16.1 mph N/A   Overcast
1:55 PM 78.8 °F - 66.2 °F 65% 29.86 in 10.0 mi SSW 8.1 mph 18.4 mph N/A   Overcast
2:15 PM 78.8 °F - 66.2 °F 65% 29.86 in 10.0 mi South 13.8 mph 23.0 mph N/A   Overcast
2:35 PM 78.8 °F - 66.2 °F 65% 29.87 in 10.0 mi South 13.8 mph 18.4 mph N/A   Overcast
2:55 PM 80.6 °F 82.7 °F 66.2 °F 61% 29.86 in 10.0 mi South 17.3 mph 20.7 mph N/A   Mostly Cloudy
3:15 PM 78.8 °F - 66.2 °F 65% 29.86 in 10.0 mi SSW 15.0 mph - N/A   Mostly Cloudy
3:35 PM 78.8 °F - 66.2 °F 65% 29.86 in 10.0 mi SSW 10.4 mph 18.4 mph N/A   Overcast
3:55 PM 78.8 °F - 66.2 °F 65% 29.86 in 10.0 mi South 12.7 mph 18.4 mph N/A   Overcast
4:15 PM 78.8 °F - 66.2 °F 65% 29.86 in 10.0 mi SSW 10.4 mph - N/A   Overcast
4:35 PM 78.8 °F - 66.2 °F 65% 29.85 in 10.0 mi South 9.2 mph - N/A   Overcast
4:55 PM 78.8 °F - 68.0 °F 69% 29.85 in 10.0 mi South 8.1 mph - N/A   Overcast
5:15 PM 78.8 °F - 68.0 °F 69% 29.85 in 10.0 mi South 8.1 mph - N/A   Overcast
5:35 PM 78.8 °F - 68.0 °F 69% 29.84 in 10.0 mi South 10.4 mph - N/A   Overcast
5:55 PM 78.8 °F - 68.0 °F 69% 29.83 in 10.0 mi South 9.2 mph 16.1 mph N/A   Mostly Cloudy
6:15 PM 78.8 °F - 68.0 °F 69% 29.82 in 10.0 mi South 12.7 mph - N/A   Mostly Cloudy
6:35 PM 78.8 °F - 68.0 °F 69% 29.82 in 10.0 mi South 9.2 mph - N/A   Overcast
6:55 PM 78.8 °F - 68.0 °F 69% 29.82 in 10.0 mi South 8.1 mph - N/A   Overcast
7:15 PM 78.8 °F - 69.8 °F 74% 29.82 in 10.0 mi South 9.2 mph - N/A   Mostly Cloudy
7:35 PM 78.8 °F - 69.8 °F 74% 29.81 in 10.0 mi South 9.2 mph - N/A   Scattered Clouds
7:55 PM 78.8 °F - 68.0 °F 69% 29.81 in 10.0 mi South 8.1 mph - N/A   Scattered Clouds
8:15 PM 75.2 °F - 69.8 °F 83% 29.80 in 10.0 mi SSE 5.8 mph - N/A   Clear
8:35 PM 75.2 °F - 69.8 °F 83% 29.81 in 10.0 mi SSE 5.8 mph - N/A   Mostly Cloudy
8:55 PM 75.2 °F - 69.8 °F 83% 29.81 in 10.0 mi SSE 6.9 mph - N/A   Mostly Cloudy
9:15 PM 73.4 °F - 68.0 °F 83% 29.80 in 10.0 mi SSE 6.9 mph - N/A   Partly Cloudy
9:35 PM 73.4 °F - 68.0 °F 83% 29.80 in 10.0 mi SSE 5.8 mph - N/A   Mostly Cloudy
9:55 PM 73.4 °F - 68.0 °F 83% 29.81 in 10.0 mi South 6.9 mph - N/A   Scattered Clouds
10:15 PM 75.2 °F - 68.0 °F 78% 29.79 in 10.0 mi South 9.2 mph - N/A   Partly Cloudy
10:35 PM 75.2 °F - 68.0 °F 78% 29.78 in 10.0 mi SSE 8.1 mph - N/A   Clear
10:55 PM 75.2 °F - 68.0 °F 78% 29.81 in 10.0 mi SSW 9.2 mph - N/A   Partly Cloudy
11:15 PM 73.4 °F - 60.8 °F 65% 29.80 in 8.0 mi West 12.7 mph 27.6 mph 0.08 in Thunderstorm Thunderstorm
11:35 PM 69.8 °F - 57.2 °F 64% 29.78 in 10.0 mi South 13.8 mph 25.3 mph 0.22 in Thunderstorm Thunderstorm
11:55 PM 66.2 °F - 59.0 °F 78% 29.76 in 8.0 mi South 10.4 mph - 0.22 in Thunderstorm Thunderstorm